| time (UTC) | temp F | wind direction | speed MPH | gust MPH | rain 1hr in | rain 24hr in | rain mn in | humidity % | barometer mb |
| 20260905152501 | 67 | 211 | 6.0 | 0.0 | 0.00 | 0.00 | 0.00 | 68 | 1022.5 |
| 20260905152002 | 67 | 212 | 5.0 | 0.0 | 0.00 | 0.00 | 0.00 | 69 | 1022.6 |
| 20260905151501 | 66 | 263 | 4.0 | 0.0 | 0.00 | 0.00 | 0.00 | 68 | 1022.5 |
| 20260905151002 | 66 | 263 | 7.0 | 0.0 | 0.00 | 0.00 | 0.00 | 67 | 1022.5 |
| 20260905150502 | 66 | 243 | 6.0 | 0.0 | 0.00 | 0.00 | 0.00 | 67 | 1022.5 |
| 20260905150001 | 66 | 260 | 6.0 | 0.0 | 0.00 | 0.00 | 0.00 | 67 | 1022.5 |
| 20260905145502 | 66 | 245 | 8.0 | 0.0 | 0.00 | 0.00 | 0.00 | 66 | 1022.6 |
| 20260905145002 | 67 | 254 | 7.0 | 0.0 | 0.00 | 0.00 | 0.00 | 63 | 1022.4 |
| 20260905144502 | 67 | 275 | 7.0 | 0.0 | 0.00 | 0.00 | 0.00 | 64 | 1022.6 |
| 20260905144001 | 68 | 243 | 3.0 | 0.0 | 0.00 | 0.00 | 0.00 | 65 | 1022.4 |
| 20260905143502 | 68 | 253 | 8.0 | 0.0 | 0.00 | 0.00 | 0.00 | 64 | 1022.4 |
| 20260905143001 | 68 | 243 | 8.0 | 0.0 | 0.00 | 0.00 | 0.00 | 64 | 1022.5 |
| 20260905142501 | 68 | 248 | 5.0 | 0.0 | 0.00 | 0.00 | 0.00 | 65 | 1022.7 |
| 20260905142001 | 69 | 272 | 10.0 | 0.0 | 0.00 | 0.00 | 0.00 | 68 | 1022.5 |
| 20260905141502 | 70 | 239 | 5.0 | 0.0 | 0.00 | 0.00 | 0.00 | 69 | 1022.5 |
| 20260905141002 | 69 | 263 | 6.0 | 0.0 | 0.00 | 0.00 | 0.00 | 67 | 1022.5 |
| 20260905140502 | 70 | 248 | 4.0 | 0.0 | 0.00 | 0.00 | 0.00 | 67 | 1022.5 |
| 20260905140002 | 70 | 266 | 3.0 | 0.0 | 0.00 | 0.00 | 0.00 | 67 | 1022.5 |
| 20260905135501 | 70 | 271 | 6.0 | 0.0 | 0.00 | 0.00 | 0.00 | 66 | 1022.4 |
| 20260905135002 | 70 | 266 | 6.0 | 0.0 | 0.00 | 0.00 | 0.00 | 68 | 1022.3 |
| 20260905134501 | 71 | 263 | 4.0 | 0.0 | 0.00 | 0.00 | 0.00 | 67 | 1022.4 |
| 20260905134002 | 70 | 284 | 7.0 | 0.0 | 0.00 | 0.00 | 0.00 | 67 | 1022.3 |
| 20260905133501 | 70 | 279 | 2.0 | 0.0 | 0.00 | 0.00 | 0.00 | 67 | 1022.4 |
| 20260905133001 | 71 | 241 | 4.0 | 0.0 | 0.00 | 0.00 | 0.00 | 67 | 1022.2 |
| 20260905132502 | 71 | 254 | 8.0 | 0.0 | 0.00 | 0.00 | 0.00 | 67 | 1022.2 |
| 20260905132001 | 71 | 250 | 4.0 | 0.0 | 0.00 | 0.00 | 0.00 | 69 | 1022.3 |
| 20260905131502 | 71 | 254 | 4.0 | 0.0 | 0.00 | 0.00 | 0.00 | 67 | 1022.2 |
| 20260905131001 | 70 | 250 | 4.0 | 0.0 | 0.00 | 0.00 | 0.00 | 70 | 1022.3 |
| 20260905130502 | 70 | 247 | 3.0 | 0.0 | 0.00 | 0.00 | 0.00 | 71 | 1022.2 |
| 20260905130001 | 70 | 251 | 5.0 | 0.0 | 0.00 | 0.00 | 0.00 | 70 | 1022.3 |
| 20260905125502 | 70 | 241 | 6.0 | 0.0 | 0.00 | 0.00 | 0.00 | 71 | 1022.3 |
| 20260905125001 | 70 | 272 | 5.0 | 0.0 | 0.00 | 0.00 | 0.00 | 71 | 1022.4 |
| 20260905124502 | 69 | 242 | 7.0 | 0.0 | 0.00 | 0.00 | 0.00 | 74 | 1022.4 |
| 20260905124002 | 70 | 241 | 7.0 | 0.0 | 0.00 | 0.00 | 0.00 | 73 | 1022.3 |
| 20260905123501 | 70 | 263 | 8.0 | 0.0 | 0.00 | 0.00 | 0.00 | 74 | 1022.3 |
| 20260905123002 | 69 | 243 | 8.0 | 0.0 | 0.00 | 0.00 | 0.00 | 74 | 1022.2 |
| 20260905122501 | 69 | 233 | 6.0 | 0.0 | 0.00 | 0.00 | 0.00 | 76 | 1022.3 |
| 20260905122002 | 68 | 209 | 7.0 | 0.0 | 0.00 | 0.00 | 0.00 | 79 | 1022.4 |
| 20260905121501 | 67 | 202 | 6.0 | 0.0 | 0.00 | 0.00 | 0.00 | 79 | 1022.3 |
| 20260905121002 | 68 | 195 | 5.0 | 0.0 | 0.00 | 0.00 | 0.00 | 77 | 1022.4 |
| 20260905120502 | 68 | 191 | 3.0 | 0.0 | 0.00 | 0.00 | 0.00 | 76 | 1022.4 |
| 20260905120002 | 67 | 240 | 4.0 | 0.0 | 0.00 | 0.00 | 0.00 | 76 | 1022.6 |
| 20260905115502 | 68 | 230 | 3.0 | 0.0 | 0.00 | 0.00 | 0.00 | 75 | 1022.5 |
| 20260905115001 | 68 | 244 | 2.0 | 0.0 | 0.00 | 0.00 | 0.00 | 75 | 1022.6 |
| 20260905114502 | 66 | 279 | 2.0 | 0.0 | 0.00 | 0.00 | 0.00 | 73 | 1022.5 |
| 20260905114001 | 67 | 275 | 6.0 | 0.0 | 0.00 | 0.00 | 0.00 | 75 | 1022.5 |
| 20260905113502 | 66 | 221 | 5.0 | 0.0 | 0.00 | 0.00 | 0.00 | 77 | 1022.5 |
| 20260905113001 | 65 | 238 | 3.0 | 0.0 | 0.00 | 0.00 | 0.00 | 81 | 1022.4 |
| 20260905112502 | 63 | 196 | 2.0 | 0.0 | 0.00 | 0.00 | 0.00 | 81 | 1022.4 |
| 20260905112001 | 63 | 220 | 4.0 | 0.0 | 0.00 | 0.00 | 0.00 | 80 | 1022.4 |
| 20260905111502 | 63 | 237 | 4.0 | 0.0 | 0.00 | 0.00 | 0.00 | 79 | 1022.4 |
| 20260905111001 | 62 | 234 | 4.0 | 0.0 | 0.00 | 0.00 | 0.00 | 80 | 1022.3 |
| 20260905110501 | 62 | 226 | 1.0 | 0.0 | 0.00 | 0.00 | 0.00 | 79 | 1022.4 |
| 20260905110002 | 63 | 244 | 5.0 | 0.0 | 0.00 | 0.00 | 0.00 | 79 | 1022.5 |
| 20260905105501 | 63 | 233 | 8.0 | 0.0 | 0.00 | 0.00 | 0.00 | 75 | 1022.4 |
| 20260905105002 | 64 | 223 | 2.0 | 0.0 | 0.00 | 0.00 | 0.00 | 81 | 1022.5 |
| 20260905104501 | 64 | 210 | 2.0 | 0.0 | 0.00 | 0.00 | 0.00 | 80 | 1022.4 |
| 20260905104002 | 64 | 190 | 2.0 | 0.0 | 0.00 | 0.00 | 0.00 | 78 | 1022.3 |
| 20260905103501 | 64 | 154 | 2.0 | 0.0 | 0.00 | 0.00 | 0.00 | 78 | 1022.2 |
| 20260905103002 | 64 | 151 | 2.0 | 0.0 | 0.00 | 0.00 | 0.00 | 80 | 1022.2 |
| 20260905102502 | 64 | 150 | 4.0 | 0.0 | 0.00 | 0.00 | 0.00 | 80 | 1022.2 |
| 20260905102002 | 63 | 152 | 5.0 | 0.0 | 0.00 | 0.00 | 0.00 | 82 | 1022.3 |
| 20260905101502 | 64 | 117 | 5.0 | 0.0 | 0.00 | 0.00 | 0.00 | 84 | 1022.1 |
| 20260905101001 | 64 | 117 | 2.0 | 0.0 | 0.00 | 0.00 | 0.00 | 84 | 1022.3 |
| 20260905100502 | 64 | 117 | 3.0 | 0.0 | 0.00 | 0.00 | 0.00 | 84 | 1022.3 |
| 20260905100001 | 63 | 115 | 2.0 | 0.0 | 0.00 | 0.00 | 0.00 | 87 | 1022.3 |
| 20260905095502 | 64 | 83 | 2.0 | 0.0 | 0.00 | 0.00 | 0.00 | 87 | 1022.4 |
| 20260905095001 | 63 | 69 | 2.0 | 0.0 | 0.00 | 0.00 | 0.00 | 86 | 1022.3 |
| 20260905094501 | 62 | 48 | 1.0 | 0.0 | 0.00 | 0.00 | 0.00 | 87 | 1022.2 |
| 20260905094002 | 63 | 49 | 2.0 | 0.0 | 0.00 | 0.00 | 0.00 | 88 | 1022.3 |
| 20260905093502 | 62 | 28 | 6.0 | 0.0 | 0.00 | 0.00 | 0.00 | 88 | 1022.3 |
| 20260905093002 | 62 | 24 | 6.0 | 0.0 | 0.00 | 0.00 | 0.00 | 88 | 1022.3 |
| 20260905092501 | 62 | 25 | 5.0 | 0.0 | 0.00 | 0.00 | 0.00 | 88 | 1022.2 |
| 20260905092002 | 62 | 36 | 6.0 | 0.0 | 0.00 | 0.00 | 0.00 | 88 | 1022.1 |
| 20260905091501 | 62 | 25 | 4.0 | 0.0 | 0.00 | 0.00 | 0.00 | 89 | 1022.1 |
| 20260905091002 | 63 | 44 | 5.0 | 0.0 | 0.00 | 0.00 | 0.00 | 88 | 1022.0 |
| 20260905090501 | 63 | 59 | 4.0 | 0.0 | 0.00 | 0.00 | 0.00 | 88 | 1021.9 |
| 20260905090002 | 63 | 51 | 3.0 | 0.0 | 0.00 | 0.00 | 0.00 | 86 | 1021.9 |
| 20260905085502 | 63 | 86 | 1.0 | 0.0 | 0.00 | 0.00 | 0.00 | 86 | 1021.9 |
| 20260905085002 | 63 | 50 | 1.0 | 0.0 | 0.00 | 0.00 | 0.00 | 87 | 1021.8 |
| 20260905084501 | 63 | 55 | 4.0 | 0.0 | 0.00 | 0.00 | 0.00 | 85 | 1021.7 |
| 20260905084001 | 63 | 43 | 5.0 | 0.0 | 0.00 | 0.00 | 0.00 | 85 | 1021.7 |
| 20260905083502 | 63 | 56 | 4.0 | 0.0 | 0.00 | 0.00 | 0.00 | 85 | 1021.6 |
| 20260905083001 | 63 | 41 | 8.0 | 0.0 | 0.00 | 0.00 | 0.00 | 85 | 1021.6 |
| 20260905082502 | 64 | 53 | 3.0 | 0.0 | 0.00 | 0.00 | 0.00 | 86 | 1021.5 |
| 20260905082001 | 63 | 68 | 5.0 | 0.0 | 0.00 | 0.00 | 0.00 | 85 | 1021.5 |
| 20260905081502 | 64 | 48 | 7.0 | 0.0 | 0.00 | 0.00 | 0.00 | 85 | 1021.5 |
| 20260905081001 | 63 | 39 | 6.0 | 0.0 | 0.00 | 0.00 | 0.00 | 85 | 1021.4 |
| 20260905080502 | 64 | 42 | 7.0 | 0.0 | 0.00 | 0.00 | 0.00 | 85 | 1021.3 |
| 20260905080001 | 64 | 33 | 4.0 | 0.0 | 0.00 | 0.00 | 0.00 | 84 | 1021.2 |
| 20260905075501 | 64 | 10 | 6.0 | 0.0 | 0.00 | 0.00 | 0.00 | 85 | 1021.2 |
| 20260905075002 | 63 | 347 | 5.0 | 0.0 | 0.00 | 0.00 | 0.00 | 86 | 1021.2 |
| 20260905074501 | 63 | 25 | 6.0 | 0.0 | 0.00 | 0.00 | 0.00 | 87 | 1020.8 |
| 20260905074002 | 63 | 27 | 5.0 | 0.0 | 0.00 | 0.00 | 0.00 | 86 | 1021.0 |
| 20260905073501 | 63 | 43 | 4.0 | 0.0 | 0.00 | 0.00 | 0.00 | 85 | 1020.8 |
| 20260905073002 | 64 | 3 | 3.0 | 0.0 | 0.00 | 0.00 | 0.00 | 85 | 1020.9 |
| 20260905072501 | 64 | 336 | 2.0 | 0.0 | 0.00 | 0.00 | 0.00 | 88 | 1021.0 |
| 20260905072002 | 63 | 39 | 4.0 | 0.0 | 0.00 | 0.00 | 0.00 | 85 | 1020.8 |
| 20260905071501 | 63 | 55 | 2.0 | 0.0 | 0.00 | 0.00 | 0.00 | 85 | 1020.7 |
| 20260905071002 | 63 | 20 | 1.0 | 0.0 | 0.00 | 0.00 | 0.00 | 84 | 1020.8 |
| 20260905070501 | 63 | 36 | 2.0 | 0.0 | 0.00 | 0.00 | 0.00 | 88 | 1020.8 |
| 20260905070001 | 62 | 120 | 1.0 | 0.0 | 0.00 | 0.00 | 0.00 | 86 | 1020.6 |
| 20260905065502 | 64 | 104 | 4.0 | 0.0 | 0.00 | 0.00 | 0.00 | 83 | 1020.6 |
| 20260905065001 | 64 | 62 | 3.0 | 0.0 | 0.00 | 0.00 | 0.00 | 82 | 1020.5 |
| 20260905064502 | 65 | 337 | 2.0 | 0.0 | 0.00 | 0.00 | 0.00 | 78 | 1020.5 |
| 20260905064001 | 65 | 303 | 1.0 | 0.0 | 0.00 | 0.00 | 0.00 | 76 | 1020.5 |
| 20260905063502 | 65 | 304 | 2.0 | 0.0 | 0.00 | 0.00 | 0.00 | 76 | 1020.3 |
| 20260905063001 | 65 | 293 | 2.0 | 0.0 | 0.00 | 0.00 | 0.00 | 76 | 1020.4 |
| 20260905062502 | 65 | 310 | 2.0 | 0.0 | 0.00 | 0.00 | 0.00 | 75 | 1020.1 |
| 20260905062002 | 65 | 294 | 2.0 | 0.0 | 0.00 | 0.00 | 0.00 | 75 | 1020.1 |
| 20260905061501 | 65 | 303 | 3.0 | 0.0 | 0.00 | 0.00 | 0.00 | 74 | 1019.9 |
| 20260905061002 | 65 | 281 | 4.0 | 0.0 | 0.00 | 0.00 | 0.00 | 75 | 1019.9 |
| 20260905060501 | 65 | 297 | 2.0 | 0.0 | 0.00 | 0.00 | 0.00 | 75 | 1019.9 |
| 20260905060002 | 65 | 316 | 5.0 | 0.0 | 0.00 | 0.00 | 0.00 | 74 | 1019.9 |
| 20260905055501 | 65 | 267 | 2.0 | 0.0 | 0.00 | 0.00 | 0.00 | 73 | 1019.8 |
| 20260905055002 | 65 | 266 | 4.0 | 0.0 | 0.00 | 0.00 | 0.00 | 74 | 1019.7 |
| 20260905054501 | 65 | 238 | 2.0 | 0.0 | 0.00 | 0.00 | 0.00 | 75 | 1019.9 |
| 20260905054001 | 65 | 251 | 2.0 | 0.0 | 0.00 | 0.00 | 0.00 | 76 | 1019.8 |
| 20260905053501 | 65 | 228 | 3.0 | 0.0 | 0.00 | 0.00 | 0.00 | 74 | 1019.7 |
| 20260905053001 | 66 | 216 | 4.0 | 0.0 | 0.00 | 0.00 | 0.00 | 72 | 1019.7 |
| 20260905052502 | 67 | 257 | 2.0 | 0.0 | 0.00 | 0.00 | 0.00 | 69 | 1019.8 |
| 20260905052001 | 67 | 225 | 2.0 | 0.0 | 0.00 | 0.00 | 0.00 | 69 | 1019.8 |
| 20260905051502 | 66 | 265 | 2.0 | 0.0 | 0.00 | 0.00 | 0.00 | 70 | 1019.8 |
| 20260905051001 | 67 | 241 | 1.0 | 0.0 | 0.00 | 0.00 | 0.00 | 68 | 1019.8 |
| 20260905050502 | 67 | 235 | 2.0 | 0.0 | 0.00 | 0.00 | 0.00 | 68 | 1019.8 |
| 20260905050001 | 67 | 239 | 3.0 | 0.0 | 0.00 | 0.00 | 0.00 | 68 | 1019.7 |
| 20260905045502 | 67 | 245 | 1.0 | 0.0 | 0.00 | 0.00 | 0.00 | 68 | 1019.7 |
| 20260905045001 | 67 | 226 | 2.0 | 0.0 | 0.00 | 0.00 | 0.00 | 67 | 1019.7 |
| 20260905044502 | 67 | 264 | 0.0 | 0.0 | 0.00 | 0.00 | 0.00 | 68 | 1019.6 |
| 20260905044002 | 67 | 304 | 2.0 | 0.0 | 0.00 | 0.00 | 0.00 | 69 | 1019.6 |
| 20260905043501 | 67 | 229 | 2.0 | 0.0 | 0.00 | 0.00 | 0.00 | 68 | 1019.5 |
| 20260905043002 | 68 | 199 | 1.0 | 0.0 | 0.00 | 0.00 | 0.00 | 67 | 1019.5 |
| 20260905042501 | 68 | 214 | 0.0 | 0.0 | 0.00 | 0.00 | 0.00 | 66 | 1019.4 |
| 20260905042002 | 67 | 217 | 2.0 | 0.0 | 0.00 | 0.00 | 0.00 | 68 | 1019.4 |
| 20260905041501 | 67 | 207 | 2.0 | 0.0 | 0.00 | 0.00 | 0.00 | 68 | 1019.3 |
| 20260905041001 | 67 | 204 | 2.0 | 0.0 | 0.00 | 0.00 | 0.00 | 68 | 1019.2 |
| 20260905040502 | 67 | 211 | 2.0 | 0.0 | 0.00 | 0.00 | 0.00 | 68 | 1019.2 |
| 20260905040001 | 68 | 199 | 1.0 | 0.0 | 0.00 | 0.00 | 0.00 | 68 | 1019.1 |
| 20260905035501 | 68 | 190 | 1.0 | 0.0 | 0.00 | 0.00 | 0.00 | 67 | 1019.1 |
| 20260905035002 | 68 | 0 | 0.0 | 0.0 | 0.00 | 0.00 | 0.00 | 68 | 1018.9 |
| 20260905034501 | 67 | 0 | 0.0 | 0.0 | 0.00 | 0.00 | 0.00 | 69 | 1018.7 |
| 20260905034001 | 67 | 183 | 1.0 | 0.0 | 0.00 | 0.00 | 0.00 | 68 | 1018.7 |
| 20260905033502 | 67 | 0 | 0.0 | 0.0 | 0.00 | 0.00 | 0.00 | 69 | 1018.7 |
| 20260905033001 | 67 | 139 | 0.0 | 0.0 | 0.00 | 0.00 | 0.00 | 69 | 1018.5 |
| 20260905032501 | 67 | 102 | 1.0 | 0.0 | 0.00 | 0.00 | 0.00 | 68 | 1018.5 |
| 20260905032002 | 66 | 0 | 0.0 | 0.0 | 0.00 | 0.00 | 0.00 | 71 | 1018.5 |
| 20260905031502 | 65 | 197 | 1.0 | 0.0 | 0.00 | 0.00 | 0.00 | 75 | 1018.3 |
| 20260905031001 | 64 | 149 | 1.0 | 0.0 | 0.00 | 0.00 | 0.00 | 77 | 1018.3 |
| 20260905030502 | 64 | 149 | 2.0 | 0.0 | 0.00 | 0.00 | 0.00 | 77 | 1018.2 |
| 20260905030002 | 65 | 129 | 2.0 | 0.0 | 0.00 | 0.00 | 0.00 | 75 | 1018.2 |
| 20260905025501 | 66 | 153 | 2.0 | 0.0 | 0.00 | 0.00 | 0.00 | 73 | 1018.1 |
| 20260905025002 | 67 | 62 | 3.0 | 0.0 | 0.00 | 0.00 | 0.00 | 70 | 1018.0 |
| 20260905024502 | 66 | 56 | 3.0 | 0.0 | 0.00 | 0.00 | 0.00 | 72 | 1017.9 |
| 20260905024002 | 66 | 20 | 2.0 | 0.0 | 0.00 | 0.00 | 0.00 | 71 | 1018.0 |
| 20260905023502 | 67 | 336 | 2.0 | 0.0 | 0.00 | 0.00 | 0.00 | 69 | 1017.7 |
| 20260905023002 | 66 | 0 | 0.0 | 0.0 | 0.00 | 0.00 | 0.00 | 73 | 1017.6 |
| 20260905022501 | 66 | 353 | 1.0 | 0.0 | 0.00 | 0.00 | 0.00 | 73 | 1017.6 |
| 20260905022002 | 66 | 238 | 2.0 | 0.0 | 0.00 | 0.00 | 0.00 | 72 | 1017.5 |
| 20260905021502 | 66 | 215 | 2.0 | 0.0 | 0.00 | 0.00 | 0.00 | 71 | 1017.4 |
| 20260905021002 | 67 | 225 | 2.0 | 0.0 | 0.00 | 0.00 | 0.00 | 69 | 1017.5 |
| 20260905020502 | 67 | 202 | 2.0 | 0.0 | 0.00 | 0.00 | 0.00 | 68 | 1017.5 |
| 20260905020002 | 66 | 216 | 1.0 | 0.0 | 0.00 | 0.00 | 0.00 | 70 | 1017.5 |
| 20260905015501 | 67 | 214 | 3.0 | 0.0 | 0.00 | 0.00 | 0.00 | 68 | 1017.5 |
| 20260905015002 | 67 | 206 | 3.0 | 0.0 | 0.00 | 0.00 | 0.00 | 69 | 1017.3 |
| 20260905014502 | 68 | 175 | 2.0 | 0.0 | 0.00 | 0.00 | 0.00 | 68 | 1017.3 |
| 20260905014001 | 67 | 147 | 1.0 | 0.0 | 0.00 | 0.00 | 0.00 | 69 | 1017.3 |
| 20260905013502 | 68 | 79 | 2.0 | 0.0 | 0.00 | 0.00 | 0.00 | 66 | 1017.1 |
| 20260905013002 | 67 | 0 | 0.0 | 0.0 | 0.00 | 0.00 | 0.00 | 69 | 1017.1 |
| 20260905012501 | 66 | 209 | 2.0 | 0.0 | 0.00 | 0.00 | 0.00 | 70 | 1017.1 |
| 20260905012002 | 67 | 182 | 2.0 | 0.0 | 0.00 | 0.00 | 0.00 | 69 | 1017.1 |
| 20260905011502 | 69 | 186 | 3.0 | 0.0 | 0.00 | 0.00 | 0.00 | 63 | 1017.2 |
| 20260905011001 | 70 | 202 | 2.0 | 0.0 | 0.00 | 0.00 | 0.00 | 62 | 1017.2 |
| 20260905010502 | 70 | 256 | 1.0 | 0.0 | 0.00 | 0.00 | 0.00 | 61 | 1017.1 |
| 20260905010001 | 70 | 285 | 3.0 | 0.0 | 0.00 | 0.00 | 0.00 | 61 | 1017.2 |
| 20260905005501 | 70 | 237 | 2.0 | 0.0 | 0.00 | 0.00 | 0.00 | 61 | 1017.1 |
| 20260905005002 | 70 | 244 | 3.0 | 0.0 | 0.00 | 0.00 | 0.00 | 61 | 1017.1 |
| 20260905004502 | 70 | 259 | 3.0 | 0.0 | 0.00 | 0.00 | 0.00 | 61 | 1017.1 |
| 20260905004001 | 70 | 252 | 3.0 | 0.0 | 0.00 | 0.00 | 0.00 | 61 | 1017.3 |
| 20260905003502 | 70 | 249 | 2.0 | 0.0 | 0.00 | 0.00 | 0.00 | 61 | 1017.2 |
| 20260905003002 | 71 | 294 | 4.0 | 0.0 | 0.00 | 0.00 | 0.00 | 59 | 1017.2 |
| 20260905002501 | 71 | 242 | 2.0 | 0.0 | 0.00 | 0.00 | 0.00 | 59 | 1016.9 |
| 20260905002002 | 72 | 255 | 4.0 | 0.0 | 0.00 | 0.00 | 0.00 | 58 | 1016.9 |
| 20260905001502 | 72 | 218 | 2.0 | 0.0 | 0.00 | 0.00 | 0.00 | 58 | 1016.9 |
| 20260905001001 | 71 | 250 | 3.0 | 0.0 | 0.00 | 0.00 | 0.00 | 58 | 1017.0 |
| 20260905000502 | 72 | 269 | 1.0 | 0.0 | 0.00 | 0.00 | 0.00 | 58 | 1017.1 |
| 20260905000002 | 71 | 244 | 7.0 | 0.0 | 0.00 | 0.00 | 0.00 | 59 | 1017.1 |
| 20260904235501 | 71 | 277 | 5.0 | 0.0 | 0.00 | 0.00 | 0.00 | 60 | 1017.0 |
| 20260904235002 | 72 | 272 | 7.0 | 0.0 | 0.00 | 0.00 | 0.00 | 58 | 1017.0 |
| 20260904234502 | 72 | 273 | 5.0 | 0.0 | 0.00 | 0.00 | 0.00 | 58 | 1016.9 |
| 20260904234001 | 71 | 239 | 2.0 | 0.0 | 0.00 | 0.00 | 0.00 | 61 | 1016.9 |
| 20260904233502 | 69 | 247 | 5.0 | 0.0 | 0.00 | 0.00 | 0.00 | 65 | 1016.8 |
| 20260904233002 | 69 | 245 | 4.0 | 0.0 | 0.00 | 0.00 | 0.00 | 66 | 1016.8 |
| 20260904232501 | 68 | 251 | 4.0 | 0.0 | 0.00 | 0.00 | 0.00 | 68 | 1016.9 |
| 20260904232002 | 68 | 242 | 4.0 | 0.0 | 0.00 | 0.00 | 0.00 | 72 | 1017.0 |
| 20260904231502 | 68 | 256 | 3.0 | 0.0 | 0.00 | 0.00 | 0.00 | 72 | 1016.9 |
| 20260904231001 | 68 | 240 | 2.0 | 0.0 | 0.00 | 0.00 | 0.00 | 69 | 1017.0 |
| 20260904230502 | 68 | 245 | 2.0 | 0.0 | 0.00 | 0.00 | 0.00 | 69 | 1016.9 |
| 20260904230002 | 68 | 259 | 4.0 | 0.0 | 0.00 | 0.00 | 0.00 | 70 | 1016.8 |
| 20260904225501 | 68 | 257 | 3.0 | 0.0 | 0.00 | 0.00 | 0.00 | 69 | 1016.8 |
| 20260904225002 | 68 | 244 | 5.0 | 0.0 | 0.00 | 0.00 | 0.00 | 70 | 1016.8 |
| 20260904224502 | 68 | 242 | 4.0 | 0.0 | 0.00 | 0.00 | 0.00 | 68 | 1016.8 |
| 20260904224001 | 68 | 243 | 4.0 | 0.0 | 0.00 | 0.00 | 0.00 | 68 | 1016.8 |
| 20260904223502 | 68 | 254 | 2.0 | 0.0 | 0.00 | 0.00 | 0.00 | 68 | 1016.8 |
| 20260904223002 | 69 | 247 | 3.0 | 0.0 | 0.00 | 0.00 | 0.00 | 66 | 1016.8 |
| 20260904222501 | 70 | 243 | 2.0 | 0.0 | 0.00 | 0.00 | 0.00 | 64 | 1016.9 |
| 20260904222002 | 70 | 248 | 4.0 | 0.0 | 0.00 | 0.00 | 0.00 | 63 | 1016.9 |
| 20260904221502 | 70 | 249 | 4.0 | 0.0 | 0.00 | 0.00 | 0.00 | 63 | 1016.9 |
| 20260904221001 | 69 | 250 | 3.0 | 0.0 | 0.00 | 0.00 | 0.00 | 65 | 1016.9 |
| 20260904220502 | 70 | 251 | 4.0 | 0.0 | 0.00 | 0.00 | 0.00 | 64 | 1016.9 |
| 20260904220002 | 70 | 255 | 4.0 | 0.0 | 0.00 | 0.00 | 0.00 | 62 | 1016.9 |
| 20260904215501 | 70 | 243 | 3.0 | 0.0 | 0.00 | 0.00 | 0.00 | 62 | 1016.7 |
| 20260904215002 | 71 | 241 | 3.0 | 0.0 | 0.00 | 0.00 | 0.00 | 61 | 1016.8 |
| 20260904214502 | 71 | 247 | 4.0 | 0.0 | 0.00 | 0.00 | 0.00 | 62 | 1016.7 |
| 20260904214001 | 71 | 245 | 4.0 | 0.0 | 0.00 | 0.00 | 0.00 | 62 | 1016.7 |
| 20260904213502 | 71 | 246 | 3.0 | 0.0 | 0.00 | 0.00 | 0.00 | 61 | 1016.8 |
| 20260904213002 | 71 | 244 | 5.0 | 0.0 | 0.00 | 0.00 | 0.00 | 62 | 1016.6 |
| 20260904212501 | 71 | 243 | 4.0 | 0.0 | 0.00 | 0.00 | 0.00 | 62 | 1016.7 |
| 20260904212002 | 71 | 231 | 6.0 | 0.0 | 0.00 | 0.00 | 0.00 | 62 | 1016.7 |
| 20260904211502 | 71 | 240 | 5.0 | 0.0 | 0.00 | 0.00 | 0.00 | 61 | 1016.6 |
| 20260904211001 | 72 | 240 | 6.0 | 0.0 | 0.00 | 0.00 | 0.00 | 60 | 1016.6 |
| 20260904210502 | 72 | 245 | 3.0 | 0.0 | 0.00 | 0.00 | 0.00 | 58 | 1016.6 |
| 20260904210002 | 72 | 245 | 4.0 | 0.0 | 0.00 | 0.00 | 0.00 | 59 | 1016.6 |
| 20260904205501 | 72 | 244 | 3.0 | 0.0 | 0.00 | 0.00 | 0.00 | 58 | 1016.7 |
| 20260904205002 | 72 | 245 | 5.0 | 0.0 | 0.00 | 0.00 | 0.00 | 58 | 1016.6 |
| 20260904204502 | 72 | 240 | 4.0 | 0.0 | 0.00 | 0.00 | 0.00 | 59 | 1016.6 |
| 20260904204001 | 72 | 251 | 2.0 | 0.0 | 0.00 | 0.00 | 0.00 | 58 | 1016.6 |
| 20260904203502 | 73 | 240 | 3.0 | 0.0 | 0.00 | 0.00 | 0.00 | 56 | 1016.6 |
| 20260904203002 | 73 | 245 | 3.0 | 0.0 | 0.00 | 0.00 | 0.00 | 55 | 1016.5 |
| 20260904202501 | 73 | 240 | 2.0 | 0.0 | 0.00 | 0.00 | 0.00 | 55 | 1016.6 |
| 20260904202001 | 75 | 0 | 0.0 | 0.0 | 0.00 | 0.00 | 0.00 | 53 | 1016.6 |
| 20260904201502 | 74 | 282 | 4.0 | 0.0 | 0.00 | 0.00 | 0.00 | 54 | 1016.4 |
| 20260904201001 | 74 | 253 | 2.0 | 0.0 | 0.00 | 0.00 | 0.00 | 55 | 1016.5 |
| 20260904200502 | 74 | 243 | 2.0 | 0.0 | 0.00 | 0.00 | 0.00 | 54 | 1016.5 |
| 20260904200002 | 74 | 264 | 4.0 | 0.0 | 0.00 | 0.00 | 0.00 | 54 | 1016.4 |
| 20260904195501 | 75 | 240 | 2.0 | 0.0 | 0.00 | 0.00 | 0.00 | 53 | 1016.4 |
| 20260904195002 | 75 | 265 | 5.0 | 0.0 | 0.00 | 0.00 | 0.00 | 52 | 1016.5 |
| 20260904194502 | 75 | 241 | 2.0 | 0.0 | 0.00 | 0.00 | 0.00 | 52 | 1016.4 |
| 20260904194001 | 75 | 247 | 1.0 | 0.0 | 0.00 | 0.00 | 0.00 | 53 | 1016.3 |
| 20260904193502 | 76 | 283 | 2.0 | 0.0 | 0.00 | 0.00 | 0.00 | 52 | 1016.4 |
| 20260904193002 | 76 | 249 | 1.0 | 0.0 | 0.00 | 0.00 | 0.00 | 51 | 1016.2 |
| 20260904192501 | 77 | 243 | 3.0 | 0.0 | 0.00 | 0.00 | 0.00 | 50 | 1016.2 |
| 20260904192002 | 77 | 265 | 1.0 | 0.0 | 0.00 | 0.00 | 0.00 | 50 | 1016.1 |
| 20260904191502 | 77 | 263 | 4.0 | 0.0 | 0.00 | 0.00 | 0.00 | 49 | 1016.0 |
| 20260904191001 | 77 | 270 | 3.0 | 0.0 | 0.00 | 0.00 | 0.00 | 49 | 1016.0 |
| 20260904190502 | 77 | 249 | 3.0 | 0.0 | 0.00 | 0.00 | 0.00 | 49 | 1015.9 |
| 20260904190002 | 77 | 245 | 3.0 | 0.0 | 0.00 | 0.00 | 0.00 | 51 | 1015.8 |
| 20260904185501 | 76 | 241 | 5.0 | 0.0 | 0.00 | 0.00 | 0.00 | 52 | 1015.8 |
| 20260904185002 | 75 | 251 | 6.0 | 0.0 | 0.00 | 0.00 | 0.00 | 55 | 1015.8 |
| 20260904184502 | 74 | 264 | 3.0 | 0.0 | 0.00 | 0.00 | 0.00 | 58 | 1015.7 |
| 20260904184001 | 74 | 241 | 5.0 | 0.0 | 0.00 | 0.00 | 0.00 | 57 | 1015.7 |
| 20260904183501 | 75 | 245 | 5.0 | 0.0 | 0.00 | 0.00 | 0.00 | 55 | 1015.6 |
| 20260904183002 | 76 | 241 | 3.0 | 0.0 | 0.00 | 0.00 | 0.00 | 53 | 1015.6 |
| 20260904182501 | 76 | 243 | 5.0 | 0.0 | 0.00 | 0.00 | 0.00 | 53 | 1015.5 |
| 20260904182002 | 76 | 243 | 3.0 | 0.0 | 0.00 | 0.00 | 0.00 | 53 | 1015.5 |
| 20260904181501 | 76 | 251 | 3.0 | 0.0 | 0.00 | 0.00 | 0.00 | 52 | 1015.4 |
| 20260904181002 | 76 | 244 | 2.0 | 0.0 | 0.00 | 0.00 | 0.00 | 52 | 1015.3 |
| 20260904180501 | 77 | 241 | 3.0 | 0.0 | 0.00 | 0.00 | 0.00 | 52 | 1015.3 |
| 20260904180001 | 77 | 244 | 2.0 | 0.0 | 0.00 | 0.00 | 0.00 | 51 | 1015.2 |
| 20260904175502 | 77 | 245 | 3.0 | 0.0 | 0.00 | 0.00 | 0.00 | 50 | 1015.2 |
| 20260904175001 | 78 | 242 | 4.0 | 0.0 | 0.00 | 0.00 | 0.00 | 49 | 1015.1 |
| 20260904174502 | 78 | 243 | 4.0 | 0.0 | 0.00 | 0.00 | 0.00 | 49 | 1015.0 |
| 20260904174001 | 79 | 243 | 3.0 | 0.0 | 0.00 | 0.00 | 0.00 | 48 | 1014.9 |
| 20260904173502 | 79 | 245 | 3.0 | 0.0 | 0.00 | 0.00 | 0.00 | 48 | 1015.0 |
| 20260904173001 | 80 | 247 | 3.0 | 0.0 | 0.00 | 0.00 | 0.00 | 46 | 1015.0 |
| 20260904172502 | 80 | 245 | 4.0 | 0.0 | 0.00 | 0.00 | 0.00 | 46 | 1015.0 |
| 20260904172001 | 81 | 249 | 2.0 | 0.0 | 0.00 | 0.00 | 0.00 | 43 | 1015.0 |
| 20260904171502 | 81 | 248 | 5.0 | 0.0 | 0.00 | 0.00 | 0.00 | 42 | 1014.9 |
| 20260904171002 | 81 | 252 | 3.0 | 0.0 | 0.00 | 0.00 | 0.00 | 42 | 1014.9 |
| 20260904170501 | 82 | 258 | 6.0 | 0.0 | 0.00 | 0.00 | 0.00 | 42 | 1014.9 |
| 20260904170004 | 82 | 248 | 8.0 | 0.0 | 0.00 | 0.00 | 0.00 | 41 | 1014.8 |
| 20260904165501 | 82 | 206 | 3.0 | 0.0 | 0.00 | 0.00 | 0.00 | 40 | 1014.9 |
| 20260904165002 | 82 | 254 | 4.0 | 0.0 | 0.00 | 0.00 | 0.00 | 39 | 1015.0 |
| 20260904164501 | 82 | 243 | 8.0 | 0.0 | 0.00 | 0.00 | 0.00 | 40 | 1014.9 |
| 20260904164002 | 83 | 256 | 6.0 | 0.0 | 0.00 | 0.00 | 0.00 | 39 | 1015.0 |
| 20260904163501 | 83 | 237 | 4.0 | 0.0 | 0.00 | 0.00 | 0.00 | 40 | 1014.9 |
| 20260904163002 | 83 | 263 | 4.0 | 0.0 | 0.00 | 0.00 | 0.00 | 39 | 1015.1 |
| 20260904162502 | 83 | 238 | 7.0 | 0.0 | 0.00 | 0.00 | 0.00 | 39 | 1015.1 |
| 20260904162002 | 83 | 250 | 4.0 | 0.0 | 0.00 | 0.00 | 0.00 | 39 | 1015.0 |
| 20260904161502 | 83 | 242 | 6.0 | 0.0 | 0.00 | 0.00 | 0.00 | 39 | 1015.0 |
| 20260904161002 | 83 | 269 | 8.0 | 0.0 | 0.00 | 0.00 | 0.00 | 39 | 1015.1 |
| 20260904160502 | 83 | 262 | 6.0 | 0.0 | 0.00 | 0.00 | 0.00 | 40 | 1015.2 |
| 20260904160001 | 83 | 244 | 10.0 | 0.0 | 0.00 | 0.00 | 0.00 | 40 | 1015.2 |
| 20260904155502 | 83 | 240 | 7.0 | 0.0 | 0.00 | 0.00 | 0.00 | 39 | 1015.2 |
| 20260904155001 | 83 | 248 | 4.0 | 0.0 | 0.00 | 0.00 | 0.00 | 39 | 1015.3 |
| 20260904154502 | 83 | 243 | 7.0 | 0.0 | 0.00 | 0.00 | 0.00 | 39 | 1015.3 |
| 20260904154002 | 83 | 257 | 6.0 | 0.0 | 0.00 | 0.00 | 0.00 | 39 | 1015.3 |
| 20260904153501 | 83 | 240 | 6.0 | 0.0 | 0.00 | 0.00 | 0.00 | 40 | 1015.5 |
| 20260904153002 | 83 | 253 | 5.0 | 0.0 | 0.00 | 0.00 | 0.00 | 36 | 1015.5 |